#timestamp,LO_Frequency,Hit,StdDev 
1593018015.0,286046999.3,N
1593018015.9,286046999.3,N
1593018035.8,286046999.3,N
1593018055.6,286046996.7,Y
1593018075.4,286046998.9,P
1593018095.3,286046999.3,N
1593018115.1,286046998.8,P
1593018135.8,286046998.7,Y
1593018155.7,286047001.0,P
1593018175.5,286047000.8,N
1593018195.3,286047000.7,N
1593018215.2,286047000.5,N
1593018235.9,286047001.2,N
1593018255.7,286046998.5,N
1593018275.6,286046998.1,N
1593018295.4,286046998.2,N
1593018315.2,286046998.9,N
1593018335.1,286046999.0,N
1593018336.0,286046999.0,N
1593018355.8,286046999.2,N
1593018375.6,286046999.2,N
1593018395.5,286046998.7,N
1593018415.3,286046998.4,N
1593018435.1,286046999.2,N
1593018455.9,286046998.9,N
1593018475.7,286046999.0,N
1593018495.5,286046999.4,N
1593018515.4,286046998.3,N
1593018535.2,286046998.3,N
1593018555.0,286046998.7,N
1593018555.9,286046998.7,N
1593018575.8,286046998.8,N
1593018595.6,286046998.8,N
1593018615.4,286046998.1,N
1593018635.3,286046999.2,N
1593018655.1,286046999.1,N
1593018656.0,286046999.1,N
1593018675.8,286046998.1,N
1593018695.7,286047000.6,N
1593018715.5,286047000.0,N
1593018735.3,286047000.3,N
1593018755.2,286047000.4,N
1593018775.9,286047000.5,N
1593018795.7,286047000.5,N
1593018815.6,286047000.8,N
1593018835.4,286047001.1,N
1593018855.2,286047000.1,N
1593018875.1,286047002.3,N
1593018876.0,286047002.3,N
1593018895.8,286046999.9,N
1593018915.6,286047000.6,N
1593018935.5,286047001.0,N
1593018955.3,286047001.0,N
1593018975.1,286047000.6,N
1593018995.9,286047000.9,N
1593019015.7,286047001.1,N
1593019035.5,286046998.5,N
1593019055.4,286046998.2,N
1593019075.2,286046998.9,N
1593019095.0,286046998.4,N
1593019095.9,286046998.4,N
1593019115.8,286047001.2,N
1593019135.6,286046998.6,N
1593019155.4,286046998.2,N
1593019175.3,286047000.9,N
1593019195.1,286047000.7,N
1593019196.0,286047000.7,N
1593019215.8,286046998.7,N
1593019235.7,286046999.9,N
1593019255.5,286047000.7,N
1593019275.3,286047000.4,N
1593019295.2,286047000.3,N
1593019315.9,286047000.5,N
1593019335.7,286047002.4,N
1593019355.6,286046999.9,N
1593019375.4,286047002.4,N
1593019395.2,286047001.5,N
1593019415.0,286047001.9,N
1593019416.0,286047001.9,N
1593019435.8,286047001.7,N
1593019455.6,286047001.6,N
1593019475.5,286047002.1,N
1593019495.3,286046999.8,N
1593019515.1,286047002.5,N
1593019535.9,286047002.1,N
1593019555.7,286047002.6,N
1593019575.5,286047002.4,N
1593019595.3,286047002.7,N
1593019615.2,286047002.5,N
1593019635.0,286046999.9,N
1593019635.9,286046999.9,N
1593019655.8,286047002.8,N
1593019675.6,286046999.9,N
1593019695.4,286047000.6,N
1593019715.2,286047000.4,N
1593019735.1,286047000.0,N
1593019736.0,286047000.0,N
1593019755.8,286047000.0,N
1593019775.7,286047002.3,N
1593019795.5,286047002.3,N
1593019815.3,286047002.7,N
1593019835.1,286047002.7,N
1593019855.9,286047000.1,N
1593019875.7,286046999.9,N
1593019895.5,286047002.8,N
1593019915.4,286047001.3,N
1593019935.2,286047001.4,N
1593019955.0,286047001.6,N
1593019956.0,286047001.6,N
1593019975.8,286047002.5,N
1593019995.6,286047002.0,N
1593020015.4,286047002.3,N
1593020035.3,286047002.4,N
1593020055.1,286047002.6,N
1593020075.8,286047000.1,N
1593020095.7,286047000.6,N
1593020115.5,286046998.8,N
1593020135.3,286047000.0,N
1593020155.2,286047001.1,N
1593020175.0,286047001.1,N
1593020175.9,286047001.1,N
1593020195.7,286047001.0,N
1593020215.6,286047000.4,N
1593020235.4,286047000.2,N
1593020255.2,286047002.7,N
1593020275.1,286047002.5,N
1593020276.0,286047002.5,N
1593020295.8,286047002.0,N
1593020315.6,286047002.7,N
1593020335.5,286047002.3,N
1593020355.3,286047002.5,N
1593020375.1,286047002.0,N
1593020395.9,286047002.5,N
1593020415.7,286047000.8,N
1593020435.5,286047000.5,N
1593020455.4,286047000.6,N
1593020475.2,286047000.3,N
1593020495.0,286047000.4,N
1593020495.9,286047000.4,N
1593020515.8,286047000.0,N
1593020535.6,286046999.9,N
1593020555.4,286047000.9,N
1593020575.3,286047000.6,N
1593020595.1,286047000.3,N
1593020615.8,286047000.6,N
1593020635.7,286047000.4,N
1593020655.5,286047000.4,N
1593020675.3,286047001.1,N
1593020695.2,286047000.8,N
1593020715.0,286046998.2,N
1593020715.9,286046998.2,N
1593020735.7,286046998.5,N
1593020755.6,286046998.6,N
1593020775.4,286047000.3,N
1593020795.2,286047000.5,N
1593020815.1,286047000.9,N
1593020816.0,286047000.9,N
1593020835.8,286047002.6,N
1593020855.6,286046999.7,N
1593020875.5,286047002.4,N
1593020895.3,286047002.7,N
1593020915.1,286047002.0,N
1593020935.9,286047004.0,Y
1593020955.7,286047000.3,P
1593020975.5,286047000.0,N
1593020995.4,286047000.8,P
1593021015.2,286046998.5,Y
1593021035.1,286047000.6,P
1593021036.0,286047000.6,P
1593021055.8,286047001.0,P
1593021075.6,286047000.6,N
1593021095.5,286047000.8,Y
1593021115.3,286046998.2,P
1593021135.1,286046998.2,N
1593021155.9,286046999.1,N
1593021175.7,286046998.9,N
1593021195.5,286046996.6,Y
1593021215.4,286046998.4,P
1593021235.2,286047001.0,P
1593021255.0,286047001.2,N
1593021255.9,286047001.2,N
1593021275.8,286046998.5,N
1593021295.6,286046998.3,N
1593021315.4,286046998.6,N
1593021335.3,286047001.2,N
1593021355.1,286047000.8,N
1593021356.0,286047000.8,N
1593021375.8,286046998.9,N
1593021395.7,286047001.1,N
1593021415.5,286047001.0,N
1593021435.3,286047000.9,N
1593021455.2,286047000.7,N
1593021475.9,286047000.4,N
1593021495.7,286047000.3,N
1593021515.6,286047001.0,N
1593021535.4,286047000.3,N
1593021555.2,286047000.1,N
1593021575.1,286047002.7,N
1593021576.0,286047002.7,N
1593021595.8,286046999.9,N
